[Iaude] MPEC U227: 2021 VM25 [a=1.65,e=0.39,i=9.2,H=20.36]
    mpec at marsden.cfa.harvard.edu 
    mpec at marsden.cfa.harvard.edu
       
    Tue Oct 24 10:20:46 EDT 2023
    
    
  
M.P.E.C. 2023-U227                             Issued 2023 October 24, 14:19 UT
     The Minor Planet Electronic Circulars contain information on unusual
         minor planets, routine data on comets and natural satellites,
         and occasional editorial announcements.  They are published
    on behalf of Division F of the International Astronomical Union by the
          Minor Planet Center, Smithsonian Astrophysical Observatory,
                          Cambridge, MA 02138, U.S.A.
			  
             Prepared using the Tamkin Foundation Computer Network
                              MPC at CFA.HARVARD.EDU
            URL https://www.minorplanetcenter.net/    ISSN 1523-6714
                                   2021 VM25                                    
                           Revision to MPEC 2021-W17                            
Additional Observations:
     K21V25M .C2004 10 11.37203 03 48 52.28 +16 25 06.7          21.9 RoEU227695
     K21V25M .C2004 10 11.45774 03 48 50.84 +16 24 19.2                oEU227695
     K21V25M 0C2023 09 11.58092003 12 30.258+18 23 54.72         23.81GVEU227T12
     K21V25M  C2023 10 22.55173303 01 09.143+13 20 40.93         21.96wXEU227F51
     K21V25M  C2023 10 22.56322003 01 08.313+13 20 31.95         21.86wXEU227F51
     K21V25M  C2023 10 22.57479703 01 07.486+13 20 22.44         21.77wXEU227F51
     K21V25M  C2023 10 23.37151703 00 12.937+13 09 35.78         21.70wXEU227F51
     K21V25M  C2023 10 23.37949103 00 12.371+13 09 28.87         21.90wXEU227F51
     K21V25M  C2023 10 23.38766303 00 11.743+13 09 22.25         21.68wXEU227F51
Observer details:
695 Kitt Peak.  Observers L. H. Wasserman, J. R. Lovering.  Measurers M. W.
    Buie, R. L. Millis, L. H. Wasserman.  4-m reflector + CCD.
F51 Pan-STARRS 1, Haleakala.  Observers J. Bulger, T. Lowe, P. Minguez, A.
    Schultz, I. Smith.  Measurers K. Chambers, T. de Boer, J. Fairlamb, H.
    Gao, M. Huber, C.-C. Lin, E. Magnier, Y. Ramanjooloo, R. Wainscoat, R.
    Weryk.  1.8-m Ritchey-Chretien + CCD.
T12 University of Hawaii 88-inch telescope, Maunakea.  Observer D. J. Tholen.
    2.24-m f/10.1 reflector + 2112 x 2112 pixels STA1600 10k CCD.
First and last observations above in comparison with prediction:
Residuals in seconds of arc, reference and Delta-T
041011 695  9.6-  0.4-    231023 F51  1.0-  0.0-    E2023-R01   +0.00 days
Orbital elements:
2021 VM25                                                Earth MOID = 0.0520 AU
Epoch 2023 Sept. 13.0 TT = JDT 2460200.5                Veres                   
M 255.59211              (2000.0)            P               Q                  
n   0.46533791     Peri.  318.98269     -0.96350719     -0.25820539             
a   1.6492649      Node   206.30679     +0.26767417     -0.92729320             
e   0.3910845      Incl.    9.16605     +0.00210425     -0.27103008             
P   2.12           H   20.36          G   0.15           U   0                  
Residuals in seconds of arc
041011 695  0.2-  0.2+    220409 O85  0.0   0.2-    220430 G96  0.0   0.0
041011 695  0.1+  0.0     220409 O85  0.2+  0.4-    220430 G96  0.0   0.0
211114 G96  0.1-  0.0     220409 O85  0.1+  0.2-    220430 G96  0.0   0.0
211114 G96  0.1-  0.1-    220409 L34  0.3+  0.5-    220430 I52  0.0   0.0
211114 G96  0.2+  0.4+    220409 L34  0.1-  0.5+    220430 I52  0.0   0.0
211114 G96  0.4+  0.2-    220409 L34  0.4-  0.0     220430 I52  0.0   0.0
211114 V06  0.0   0.1+    220410 W68  0.0   0.0     220430 I52  0.0   0.0
211114 V06  0.1-  0.0     220410 W68  0.1+  0.0     220501 703  0.1+  0.6+
211114 V06  0.2-  0.0     220410 W68  0.0   0.1-    220501 703  0.3+  0.1+
211114 V06  0.1-  0.2-    220410 W68  0.0   0.1-    220501 703  0.0   0.1+
211115 V06  0.0   0.3-    220410 O85  0.3-  0.2-    220501 703  0.1+  0.2-
211115 V06  0.3-  0.0     220410 O85  0.4-  0.2-    220501 T05  0.0   0.0
211115 V06  0.0   0.2+    220410 O85  0.1+  0.0     220501 T05  0.1-  0.0
211115 V06  0.3-  0.3+    220410 O85  0.0   0.1+    220501 T05  0.1+  0.0
211115 291  0.4-  0.1-    220410 O85  0.5-  0.2-    220501 T05  0.2+  0.3+
211115 291  0.2-  0.4-    220410 O85  0.1+  0.1-    220502 I52  0.0   0.2-
211115 291  0.3-  0.1+    220410 O85  0.1+  0.4-    220502 I52  0.1+  0.1-
211116 I52  0.5-  0.2-    220410 O85  0.1+  0.1-    220502 I52  0.1-  0.0
211116 I52  0.1+  0.2+    220410 K83  0.1+  0.1+    220502 I52  0.1-  0.1-
211116 I52  0.4+  0.1-    220410 K83  0.3+  0.3-    220504 W68  0.2+  0.0
211117 G96  0.1-  0.2+    220410 K83  0.2-  0.0     220504 W68  0.0   0.1+
211117 G96  0.2-  0.1-    220410 G17  0.1+  0.2-    220504 W68  0.0   0.1-
211117 G96  0.0   0.2-    220410 G17  0.0   0.2-    220504 W68  0.2+  0.1+
211125 807 (0.8-  0.5-)   220410 G17  0.0   0.1-    220505 703  0.3-  0.1+
211125 807 (0.2+  2.1+)   220410 L63  0.2+  0.1-    220505 703  0.2+  0.2+
211125 807  0.3+  0.1-    220410 L63  0.2+  0.1+    220505 703  0.2-  0.2+
211125 F51  0.0   0.0     220410 L63  0.0   0.0     220505 703  0.0   0.2-
211125 F51  0.1-  0.0     220411 T05  0.1+  0.1-    220506 D29  0.1-  0.0
211125 F51  0.1-  0.0     220411 T05  0.2+  0.2-    220506 D29  0.1-  0.1-
211125 F51  0.0   0.1-    220411 T05  0.1+  0.3+    220506 D29  0.1-  0.0
211125 F51  0.0   0.1-    220411 T05  0.1-  0.3+    220507 K74  0.1+  0.1+
211125 F51  0.0   0.0     220411 073  0.2-  0.1-    220507 K74  0.1-  0.1-
211125 F51  0.0   0.0     220411 073  0.1+  0.1-    220507 K74  0.2+  0.0
211127 807  0.4+  0.1+    220411 073  0.2-  0.2-    220507 K74  0.1-  0.0
211127 807  0.2-  0.5+    220411 L18  0.5-  0.2-    220507 K74  0.2+  0.2+
211127 807  0.2+  0.2-    220411 L18  0.5-  0.1-    220509 H21  0.4-  0.2-
211130 I52  0.2-  0.0     220411 L18  1.0-  0.1-    220509 H21  0.5-  0.1-
211130 I52  0.4-  0.2+    220411 073  0.2-  0.2-    220509 H21  0.4-  0.2-
211130 I52  0.1-  0.1-    220411 073  1.3-  1.9-    220509 H21  0.5-  0.2-
211130 I52  0.5-  0.4+    220411 K87  0.1+  0.2-    220509 H21  0.4-  0.2-
211203 G96  0.1+  0.1+    220411 K87  0.4-  0.1+    220509 703  0.3-  0.2-
211203 G96  0.1-  0.1-    220411 K87  0.1-  0.3+    220509 703  0.1-  0.0
211203 G96  0.0   0.1-    220411 L18  0.2-  0.4+    220509 703  0.3-  0.3-
211203 I52  0.1-  0.1+    220411 L18  0.2+  0.7-    220509 703  0.1+  0.3-
211203 I52  0.4-  0.4+    220411 L18  0.1-  0.1+    220509 T08  0.1+  0.1+
211203 I52  0.1-  0.9+    220411 L18  0.2-  0.2+    220509 T08  0.1-  0.0
211203 I52  0.2-  0.2+    220411 L01  0.0   0.1-    220509 T08  0.2+  0.3-
211209 I52  0.2-  0.2+    220411 L18  0.0   0.6+    220509 T08  0.0   0.1-
211209 I52  0.2+  0.1-    220411 L01  0.2+  0.1-    220509 G17  0.2-  0.4-
211209 I52  0.2-  0.0     220411 L01  0.3+  0.4+    220509 G17  0.1-  0.1-
211212 I52  0.7+  0.5+    220411 L01  0.0   0.1+    220509 G17  0.2-  0.2-
211212 I52  0.2-  0.1+    220411 L01  0.1+  0.2+    220510 I41  0.1+  0.1+
211212 I52  0.2-  0.1-    220411 L18  0.4-  0.1+    220510 I41  0.0   0.0
211212 I52  0.7+  0.0     220411 L01  0.2+  0.0     220510 I41  0.0   0.0
211215 807  0.2+  0.0     220411 L01  0.2+  0.3+    220510 I41  0.1+  0.0
211215 807  0.1+  0.0     220411 L01  0.1+  0.1+    220510 I41  0.0   0.0
211215 807  0.1+  0.0     220411 L01  0.1+  0.2+    220511 H21  0.4+  0.4-
211225 474  0.6+  0.2+    220412 073  0.1+  0.0     220511 H21  0.2+  0.3-
211225 474  0.0   0.3+    220412 073  0.0   0.1-    220511 H21  0.1+  0.0
211225 474  0.1+  0.4-    220412 073  0.1+  0.2-    220511 H21  0.2-  0.2-
211228 807  0.2-  0.1+    220412 073  0.2-  0.3-    220511 H21  0.0   0.1-
211228 807  0.0   0.3+    220412 073  0.3-  0.0     220511 H21  0.3-  0.1+
211228 807  0.1-  0.0     220413 073  0.4+  0.2-    220511 H21  0.3-  0.0
211230 807  0.1-  0.2-    220413 073 (1.7-  0.6-)   220511 691  0.4-  0.2-
211230 807  0.0   0.1-    220413 073  0.5-  0.2+    220511 691  0.4-  0.0
211230 807  0.0   0.1-    220414 M21  0.0   0.1+    220511 691  0.1+  0.1-
211231 807  0.1+  0.2-    220414 M21  0.1-  0.0     220511 T08  0.1+  0.0
211231 807  0.2+  0.1-    220414 M21  0.0   0.0     220511 T08  0.6+  0.0
211231 807  0.1+  0.3-    220414 M21  0.0   0.1-    220511 T08  0.5+  0.1+
220106 703  1.7-  0.7+    220414 M21  0.2+  0.1-    220511 T08  0.6-  0.4+
220106 703  0.7-  0.6-    220416 K87  0.5+  0.4+    220512 W53  1.1-  0.5+
220106 703  0.7-  0.0     220416 K87  0.7+  0.0     220512 W53  0.2-  1.7+
220106 474  0.5+  0.0     220416 K87  0.6+  0.3+    220512 W53  1.4-  0.2+
220106 474  0.0   0.2+    220417 B72  0.1+  0.1+    220512 W53  0.0   0.7+
220106 474  0.1+  0.0     220417 B72  0.6+  0.5+    220512 W53  0.3-  0.1+
220106 474  0.2+  0.4+    220417 B72  0.3+  0.1+    220512 W53  1.3+  0.3+
220110 691  0.6+  0.1-    220417 B72  0.2+  0.1-    220517 T05  0.9+  0.1-
220110 691  0.3+  0.4-    220417 K74  0.2+  0.2+    220517 T05  0.3+  0.2+
220110 691  0.1+  0.1-    220417 K74  0.1+  0.0     220517 T05  0.0   0.4+
220111 691  0.5+  0.4+    220417 K74  0.2+  0.1-    220517 T05  0.1-  0.5-
220111 691  0.0   0.1-    220417 K87  0.5+  0.1-    220520 W68  0.1-  1.3-
220111 691  0.0   0.2+    220417 K87  0.5+  0.2+    220520 W68  0.7-  0.2+
220113 691  0.1+  0.3+    220417 K87  0.5+  0.0     220520 W68  0.2-  0.2-
220113 691  0.1+  0.1-    220418 W68  0.2-  0.0     220520 W68  0.0   0.1-
220113 691  0.1-  0.1+    220418 W68  0.1-  0.1-    220520 703  0.5-  0.3-
220114 F52  0.0   0.1+    220418 W68  0.1-  0.1+    220520 703  0.6-  0.3+
220114 F52  0.0   0.0     220418 W68  0.0   0.1-    220520 703  0.4+  0.9+
220114 F52  0.0   0.1+    220418 G33  0.0   0.0     220520 703  0.8-  0.3+
220114 F52  0.0   0.0     220418 G33  0.2+  0.3-    220520 D29  0.1-  0.0
220120 F52  0.0   0.0     220418 G33  0.1+  0.3-    220520 D29  0.0   0.1-
220120 F52  0.0   0.1-    220418 G33  0.2+  0.0     220520 D29  0.9-  0.2+
mailing list